W8DRH-13 Weather Reports


time (UTC)temp
C
wind
direction
speed
KPH
gust
KPH
rain 1hr
cm
rain 24hr
cm
rain mn
cm
humidity
%
barometer
mb
20260504015213 9 151 1.6 1.6 0.00 0.00 0.00 77 1010.3
20260504014708 9 154 1.6 3.2 0.00 0.00 0.00 76 1010.6
20260504014206 10 155 1.6 1.6 0.00 0.00 0.00 76 1010.2
20260504013703 10 135 0.0 0.0 0.00 0.00 0.00 76 1010.3
20260504013201 10 134 1.6 1.6 0.00 0.00 0.00 76 1010.2
20260504012657 10 150 3.2 4.8 0.00 0.00 0.00 75 1010.4
20260504012155 10 149 4.8 4.8 0.00 0.00 0.00 75 1010.3
20260504011652 10 141 1.6 1.6 0.00 0.00 0.00 75 1010.2
20260504011148 10 139 0.0 0.0 0.00 0.00 0.00 75 1010.4
20260504010644 10 169 3.2 3.2 0.00 0.00 0.00 75 1010.3
20260504010140 10 150 0.0 0.0 0.00 0.00 0.00 75 1010.3
20260504005637 10 168 3.2 3.2 0.00 0.00 0.00 75 1010.4
20260504005134 10 152 1.6 1.6 0.00 0.00 0.00 75 1010.5
20260504004632 10 164 1.6 3.2 0.00 0.00 0.00 75 1010.5
20260504004129 10 162 3.2 3.2 0.00 0.00 0.00 74 1010.3
20260504003625 10 154 0.0 0.0 0.00 0.00 0.00 73 1010.5
20260504003122 10 162 1.6 1.6 0.00 0.00 0.00 73 1010.4
20260504002619 10 216 3.2 3.2 0.00 0.00 0.00 73 1010.5
20260504002116 10 200 0.0 0.0 0.00 0.00 0.00 72 1010.6
20260504001614 10 203 3.2 4.8 0.00 0.00 0.00 72 1010.7
20260504001109 10 220 14.5 16.1 0.00 0.00 0.00 71 1010.7
20260504000607 10 218 11.3 12.9 0.00 0.00 0.00 70 1010.6
20260504000105 10 228 12.9 14.5 0.00 0.00 0.00 70 1010.7
20260503235603 10 230 9.7 12.9 0.00 0.00 0.00 69 1010.9
20260503235059 10 229 12.9 14.5 0.00 0.00 0.00 68 1011.1
20260503234557 10 241 20.9 27.4 0.00 0.00 0.00 68 1011.0
20260503234055 11 249 16.1 20.9 0.00 0.00 0.00 67 1010.9
20260503233551 11 270 17.7 24.1 0.00 0.00 0.00 66 1011.0
20260503233047 11 257 19.3 25.7 0.00 0.00 0.00 66 1011.0
20260503232544 11 259 27.4 33.8 0.00 0.00 0.00 64 1011.3
20260503232042 11 242 19.3 24.1 0.00 0.00 0.00 63 1011.0
20260503231539 12 238 20.9 25.7 0.00 0.00 0.00 61 1010.8
20260503231036 12 270 27.4 33.8 0.00 0.00 0.00 58 1010.9
20260503230532 12 253 19.3 24.1 0.00 0.00 0.00 56 1010.8
20260503230030 13 266 24.1 27.4 0.00 0.00 0.00 52 1010.6
20260503225527 14 234 16.1 17.7 0.00 0.00 0.00 45 1010.4
20260503225021 14 224 19.3 22.5 0.00 0.00 0.00 45 1010.3
20260503224520 14 222 16.1 22.5 0.00 0.00 0.00 45 1010.5
20260503224017 15 216 11.3 14.5 0.00 0.00 0.00 45 1010.6
20260503223515 15 263 11.3 12.9 0.00 0.00 0.00 44 1010.5
20260503223010 15 246 14.5 17.7 0.00 0.00 0.00 43 1010.4
20260503222509 15 247 8.0 9.7 0.00 0.00 0.00 43 1010.8
20260503222006 15 250 11.3 12.9 0.00 0.00 0.00 42 1010.6
20260503221504 15 211 9.7 12.9 0.00 0.00 0.00 43 1010.5
20260503221001 15 260 17.7 20.9 0.00 0.00 0.00 42 1010.7
20260503220457 15 199 9.7 12.9 0.00 0.00 0.00 43 1010.7
20260503215954 15 258 14.5 20.9 0.00 0.00 0.00 43 1010.8
20260503215451 15 234 12.9 16.1 0.00 0.00 0.00 43 1010.7
20260503214949 15 261 14.5 17.7 0.00 0.00 0.00 43 1010.7
20260503214447 15 214 22.5 27.4 0.00 0.00 0.00 42 1010.8
20260503213943 15 219 14.5 16.1 0.00 0.00 0.00 43 1010.8
20260503213437 15 286 12.9 16.1 0.00 0.00 0.00 42 1011.0
20260503212932 15 230 9.7 11.3 0.00 0.00 0.00 42 1010.8
20260503212430 15 276 14.5 16.1 0.00 0.00 0.00 42 1010.8
20260503211927 15 260 12.9 14.5 0.00 0.00 0.00 42 1010.8
20260503211424 15 249 12.9 14.5 0.00 0.00 0.00 42 1010.9
20260503210919 15 234 12.9 20.9 0.00 0.00 0.00 42 1010.9
20260503210416 15 211 24.1 30.6 0.00 0.00 0.00 41 1011.1
20260503205911 15 225 12.9 14.5 0.00 0.00 0.00 42 1011.1
20260503205409 15 230 9.7 14.5 0.00 0.00 0.00 43 1011.1
20260503204904 15 265 9.7 12.9 0.00 0.00 0.00 42 1011.1
20260503204402 15 242 11.3 12.9 0.00 0.00 0.00 42 1011.3
20260503203859 15 245 19.3 24.1 0.00 0.00 0.00 41 1011.5
20260503203356 15 257 17.7 22.5 0.00 0.00 0.00 41 1011.3
20260503202853 15 220 19.3 24.1 0.00 0.00 0.00 42 1011.3
20260503202351 15 227 14.5 17.7 0.00 0.00 0.00 42 1011.4
20260503201849 15 217 22.5 25.7 0.00 0.00 0.00 42 1011.4
20260503201346 15 234 11.3 12.9 0.00 0.00 0.00 41 1011.5
20260503200844 15 252 24.1 30.6 0.00 0.00 0.00 41 1011.5
20260503200339 15 245 14.5 16.1 0.00 0.00 0.00 43 1011.7
20260503195837 15 239 14.5 17.7 0.00 0.00 0.00 43 1011.8
20260503195333 15 241 14.5 16.1 0.00 0.00 0.00 41 1011.5
20260503194831 15 218 16.1 24.1 0.00 0.00 0.00 43 1011.7
20260503194326 15 293 9.7 12.9 0.00 0.00 0.00 44 1011.9
20260503193823 15 260 14.5 14.5 0.00 0.00 0.00 42 1012.0
20260503193319 16 229 11.3 12.9 0.00 0.00 0.00 41 1011.9
20260503192815 15 276 16.1 17.7 0.00 0.00 0.00 42 1012.0
20260503192310 15 225 11.3 12.9 0.00 0.00 0.00 43 1012.1
20260503191806 15 248 6.4 9.7 0.00 0.00 0.00 44 1012.0
20260503191304 15 239 20.9 24.1 0.00 0.00 0.00 42 1012.3
20260503190801 15 236 12.9 14.5 0.00 0.00 0.00 41 1012.3
20260503190258 15 243 17.7 22.5 0.00 0.00 0.00 43 1012.4
20260503185755 15 234 14.5 22.5 0.00 0.00 0.00 43 1012.6
20260503185250 15 274 11.3 14.5 0.00 0.00 0.00 44 1012.5
20260503184745 15 229 9.7 14.5 0.00 0.00 0.00 44 1012.5
20260503184241 15 227 14.5 17.7 0.00 0.00 0.00 43 1012.6
20260503183737 15 214 11.3 14.5 0.00 0.00 0.00 45 1012.9
20260503183235 15 232 20.9 25.7 0.00 0.00 0.00 43 1012.8
20260503182733 15 211 14.5 17.7 0.00 0.00 0.00 45 1012.7
20260503182232 15 247 11.3 14.5 0.00 0.00 0.00 42 1013.0
20260503181728 15 258 12.9 16.1 0.00 0.00 0.00 44 1013.1
20260503181225 15 269 14.5 16.1 0.00 0.00 0.00 42 1013.3
20260503180721 15 262 11.3 16.1 0.00 0.00 0.00 44 1013.1
20260503180220 15 231 14.5 24.1 0.00 0.00 0.00 43 1013.2
20260503175716 15 217 14.5 16.1 0.00 0.00 0.00 42 1013.3
20260503175214 15 273 12.9 16.1 0.00 0.00 0.00 44 1013.4
20260503174710 14 233 12.9 12.9 0.00 0.00 0.00 43 1013.3
20260503174207 14 222 12.9 14.5 0.00 0.00 0.00 46 1013.2
20260503173702 14 248 11.3 16.1 0.00 0.00 0.00 46 1013.4
20260503173159 15 288 14.5 17.7 0.00 0.00 0.00 44 1013.5
20260503172655 14 273 9.7 14.5 0.00 0.00 0.00 45 1013.5
20260503172153 14 267 17.7 24.1 0.00 0.00 0.00 41 1013.6
20260503171649 14 290 12.9 16.1 0.00 0.00 0.00 44 1013.8
20260503171147 14 271 8.0 11.3 0.00 0.00 0.00 44 1013.9
20260503170643 13 248 9.7 12.9 0.00 0.00 0.00 46 1013.7
20260503170140 13 302 19.3 22.5 0.00 0.00 0.00 43 1013.9
20260503150531 12 277 8.0 9.7 0.00 0.00 0.00 52 1014.9
20260503131419 7 224 4.8 6.4 0.00 0.00 0.00 63 1015.3
20260503130916 7 269 6.4 6.4 0.00 0.00 0.00 64 1015.3
20260503130414 7 254 12.9 14.5 0.00 0.00 0.00 63 1015.3
20260503110817 1 173 0.0 0.0 0.00 0.00 0.00 81 1014.9
20260503110314 1 180 0.0 0.0 0.00 0.00 0.00 82 1014.8
20260503100240 1 173 0.0 0.0 0.00 0.00 0.00 81 1014.4
20260503090159 2 215 0.0 0.0 0.00 0.00 0.00 79 1014.4
20260503081636 2 224 0.0 0.0 0.00 0.00 0.00 78 1014.4
20260503081127 2 230 0.0 0.0 0.00 0.00 0.00 78 1014.6
20260503080623 2 226 0.0 0.0 0.00 0.00 0.00 78 1014.3
20260503080120 2 227 0.0 0.0 0.00 0.00 0.00 78 1014.5
20260503072556 2 227 0.0 0.0 0.00 0.00 0.00 78 1014.4
20260503072054 2 245 0.0 0.0 0.00 0.00 0.00 78 1014.6
20260503071551 2 232 0.0 0.0 0.00 0.00 0.00 78 1014.5
20260503071048 2 227 0.0 0.0 0.00 0.00 0.00 77 1014.5
20260503070543 2 222 0.0 0.0 0.00 0.00 0.00 77 1014.6
20260503054957 3 221 3.2 3.2 0.00 0.00 0.00 76 1014.9
20260503054453 3 230 0.0 0.0 0.00 0.00 0.00 76 1015.1
20260503053951 3 228 0.0 0.0 0.00 0.00 0.00 76 1015.1
20260503053449 3 227 0.0 0.0 0.00 0.00 0.00 76 1014.9
20260503052945 3 224 3.2 3.2 0.00 0.00 0.00 76 1015.0
20260503052443 3 225 3.2 4.8 0.00 0.00 0.00 77 1014.9
20260503051939 3 236 4.8 4.8 0.00 0.00 0.00 77 1014.8
20260503051435 3 234 0.0 0.0 0.00 0.00 0.00 77 1014.8
20260503050932 3 220 0.0 0.0 0.00 0.00 0.00 77 1014.6
20260503050428 3 225 0.0 0.0 0.00 0.00 0.00 77 1014.8
20260503045926 3 225 0.0 0.0 0.00 0.00 0.00 77 1014.8
20260503045423 3 226 0.0 0.0 0.00 0.00 0.00 76 1015.0
20260503044920 3 222 0.0 0.0 0.00 0.00 0.00 76 1014.9
20260503044417 -17 0.0 0.0 0.00 0.00 0.00 1014.6
20260503043914 4 221 0.0 0.0 0.00 0.00 0.00 76 1014.8
20260503043411 4 221 0.0 0.0 0.00 0.00 0.00 76 1014.6
20260503042907 4 217 0.0 0.0 0.00 0.00 0.00 75 1014.8
20260503042404 4 228 0.0 0.0 0.00 0.00 0.00 75 1014.9
20260503041900 4 224 0.0 0.0 0.00 0.00 0.00 75 1014.6
20260503041357 4 230 0.0 0.0 0.00 0.00 0.00 75 1014.8
20260503040855 4 217 0.0 0.0 0.00 0.00 0.00 75 1014.6
20260503040352 4 210 0.0 0.0 0.00 0.00 0.00 76 1014.8
20260503035849 4 198 0.0 0.0 0.00 0.00 0.00 75 1015.0
20260503035346 4 222 0.0 0.0 0.00 0.00 0.00 75 1015.1
20260503034843 4 215 0.0 0.0 0.00 0.00 0.00 75 1015.0
20260503034341 4 219 0.0 0.0 0.00 0.00 0.00 75 1015.0
20260503033838 5 213 0.0 0.0 0.00 0.00 0.00 74 1015.0
20260503033335 5 219 0.0 0.0 0.00 0.00 0.00 74 1014.8
20260503032833 5 217 0.0 0.0 0.00 0.00 0.00 73 1015.1
20260503032332 5 208 0.0 0.0 0.00 0.00 0.00 73 1015.1
20260503031829 5 216 0.0 0.0 0.00 0.00 0.00 73 1014.9
20260503031326 5 189 0.0 0.0 0.00 0.00 0.00 73 1015.0
20260503030822 5 178 0.0 0.0 0.00 0.00 0.00 73 1014.9
20260503030319 5 163 0.0 0.0 0.00 0.00 0.00 72 1015.0
20260503025816 5 163 0.0 0.0 0.00 0.00 0.00 72 1014.9
20260503025313 5 163 0.0 0.0 0.00 0.00 0.00 72 1015.1
20260503024810 5 163 0.0 0.0 0.00 0.00 0.00 72 1015.1
20260503024307 5 163 0.0 0.0 0.00 0.00 0.00 72 1015.2
20260503023803 5 163 0.0 0.0 0.00 0.00 0.00 72 1015.3
20260503023300 5 162 0.0 0.0 0.00 0.00 0.00 72 1015.2
20260503022756 5 162 0.0 0.0 0.00 0.00 0.00 71 1015.1
20260503022251 5 162 0.0 0.0 0.00 0.00 0.00 70 1015.1
20260503021748 5 162 0.0 0.0 0.00 0.00 0.00 69 1015.5
20260503021244 5 183 0.0 0.0 0.00 0.00 0.00 69 1015.3
20260503020742 5 303 0.0 0.0 0.00 0.00 0.00 69 1015.2
20260503020240 5 18 0.0 0.0 0.00 0.00 0.00 69 1015.2
20260503015736 6 22 0.0 0.0 0.00 0.00 0.00 67 1015.1